Terminal Aerodrome Forecast
Issued by NWS Cleveland, OH

Home | Current Version | Previous Version | Text Only | Print | Product List | Glossary On
Versions: 1 2 3 4 5 6 7 8 9 10 11 12 13 14 15 16 17 18
511
FTUS41 KCLE 022328
TAFERI
TAF
KERI 022328Z 0300/0324 28012G20KT P6SM SCT025 OVC040
      TEMPO 0300/0304 BKN025
     FM030900 29009KT 6SM -SHRASN BKN018 OVC035
     FM031700 28014KT P6SM VCSH OVC025=

USA.gov is the U.S. government's official web portal to all federal, state and local government web resources and services.